This is the latest recevied weather packets stored in our database for station/object KO4LCK. If no packets are shown the sender has not sent any weather packets the latest 10 day(s).
| Time | Temp. | Humidity | Pressure | Rain* | Wind** | Luminosity | Snow |
|---|---|---|---|---|---|---|---|
| 1788481232 | 31.11° C | 65% | 1016.3 hPa | 0 mm | - | 0 W/m² | - |
| 1788480928 | 31.67° C | 63% | 1016.1 hPa | 0 mm | - | 0 W/m² | - |
| 1788480627 | 31.67° C | 59% | 1016.1 hPa | 0 mm | - | 1 W/m² | - |
| 1788480327 | 31.67° C | 59% | 1016.1 hPa | 0 mm | - | 2 W/m² | - |
| 1788480024 | 31.11° C | 59% | 1016 hPa | 0 mm | - | 2 W/m² | - |
| 1788479733 | 31.11° C | 63% | 1016.4 hPa | 0 mm | - | 4 W/m² | - |
| 1788479419 | 31.11° C | 64% | 1016.1 hPa | 0 mm | - | 5 W/m² | - |
| 1788479114 | 31.11° C | 64% | 1016 hPa | 0 mm | - | 7 W/m² | - |
| 1788478810 | 31.11° C | 63% | 1016 hPa | 0 mm | - | 10 W/m² | - |
| 1788478506 | 31.67° C | 63% | 1015.8 hPa | 0 mm | - | 14 W/m² | - |
| 1788478201 | 31.67° C | 62% | 1016 hPa | 0 mm | - | 16 W/m² | - |
| 1788477896 | 31.67° C | 60% | 1015.9 hPa | 0 mm | - | 17 W/m² | - |
| 1788477596 | 32.22° C | 60% | 1015.9 hPa | 0 mm | - | 17 W/m² | - |
| 1788477291 | 32.78° C | 59% | 1015.7 hPa | 0 mm | - | 17 W/m² | - |
| 1788476985 | 32.78° C | 58% | 1015.7 hPa | 0 mm | - | 17 W/m² | - |
| 1788476681 | 33.33° C | 56% | 1015.8 hPa | 0 mm | - | 18 W/m² | - |
| 1788476377 | 33.33° C | 54% | 1015.6 hPa | 0 mm | - | 21 W/m² | - |
| 1788476072 | 33.33° C | 55% | 1015.7 hPa | 0 mm | - | 25 W/m² | - |
| 1788475769 | 33.89° C | 55% | 1015.7 hPa | 0 mm | - | 35 W/m² | - |
| 1788475465 | 33.89° C | 54% | 1015.8 hPa | 0 mm | - | 50 W/m² | - |
| 1788475161 | 33.89° C | 53% | 1015.7 hPa | 0 mm | - | 62 W/m² | - |
| 1788474860 | 33.89° C | 53% | 1015.7 hPa | 0 mm | - | 74 W/m² | - |
| 1788474559 | 33.89° C | 54% | 1015.8 hPa | 0 mm | - | 122 W/m² | - |
| 1788474255 | 34.44° C | 53% | 1015.7 hPa | 0 mm | - | 123 W/m² | - |
| 1788473948 | 34.44° C | 52% | 1015.7 hPa | 0 mm | - | 112 W/m² | - |
* Rain latest hour (hover to see other rain measurements)
** Current wind speed in m/s (hover to see current wind gust speed)